User: anonymous   Login
Location: Unspecified
(0.0000°N, 0.0000°E)
Time: 09:08:57
(UTC+00:00)
Language:

Nadezhda 1 - Orbit

View from above orbital plane
View from above orbital plane
View from above satellite
View from above satellite

Ground track
Ground track

The orbit data is extracted from the following two-line orbital elements,

1 20103U 89050A   18110.20605194  .00000041  00000-0  26651-4 0  9995
2 20103  82.9616 342.0951 0038353 138.1227 341.1159 13.74561259444302
Epoch (UTC): 20 April 2018 04:56:42
Eccentricity: 0.0038353
inclination: 82.9616°
perigee height: 955 km
apogee height: 1011 km
right ascension of ascending node: 342.0951°
argument of perigee: 138.1227°
revolutions per day: 13.74561259
mean anomaly at epoch: 341.1159°
orbit number at epoch: 44430

The dashed part of the orbit path shows where the satellite is in the earth's shadow,  

DLR